This demonstration page uses our WeatherBlox Daily Observations layout. Learn more.

Left ArrowRight Arrow

Hourly Observations for December 16, 2016

Temp ( °F °C ) Dew Point ( °F °C ) Humidity (%) Winds ( mph kmh ) Pressure ( in mb ) Visibility ( mi km ) Precip ( " mm )
12:30 am 00:30 Cloudy with Rain 71 21.7 69 20.6 94 94 W 10 17 29.83 1010 6 10 0.03 0.76
12:53 am 00:53 Cloudy with Rain 70 21.1 69 20.6 97 97 W 6 9 29.82 1010 3 5 0.15 3.81
1:03 am 01:03 Cloudy with Light Rain 70 21.1 69 20.6 97 97 WNW 12 19 29.83 1010 10 16 0.00 0.03
1:17 am 01:17 Cloudy with Light Rain 69 20.6 68 20 96 96 NW 8 13 29.80 1009 9 14 0.01 0.25
1:53 am 01:53 Cloudy with Light Rain 69 20.6 68 20 96 96 E 5 7 29.81 1009 10 16 0.02 0.51
2:05 am 02:05 Cloudy 69 20.6 68 20 96 96 ENE 6 9 29.80 1009 10 16 0.00 0.03
2:44 am 02:44 Cloudy with Light Rain 69 20.6 68 20 96 96 Calm 29.80 1009 9 14 0.00 0.03
2:53 am 02:53 Cloudy with Light Rain 69 20.6 68 20 96 96 ENE 3 6 29.80 1009 9 14 0.01 0.25
3:13 am 03:13 Cloudy with Light Rain 69 20.6 68 20 96 96 Calm 29.80 1009 9 14 0.01 0.25
3:20 am 03:20 Cloudy with Rain 69 20.6 68 20 96 96 NW 3 6 29.80 1009 6 10 0.03 0.76
3:35 am 03:35 Cloudy with Heavy Rain 68 20 68 20 100 100 N 5 7 29.80 1009 3 4 0.16 4.06
3:43 am 03:43 Cloudy with Heavy Rain 69 20.6 69 20.6 100 100 Calm 29.80 1009 5 8 0.18 4.57
3:53 am 03:53 Cloudy with Heavy Rain 69 20.6 69 20.6 100 100 Calm 29.81 1009 3 5 0.24 6.10
4:09 am 04:09 Cloudy with Heavy Rain 70 21 70 21 100 100 VRB 5 7 29.80 1009 5 8 0.00 0.00
4:16 am 04:16 Cloudy with Heavy Rain 68 20 68 20 100 100 VRB 5 7 29.83 1010 3 5 0.10 2.54
4:34 am 04:34 Cloudy with Heavy Rain 68 20 67 19.4 96 96 W 16 26 29.83 1010 2 3 0.25 6.35
4:39 am 04:39 Cloudy with Heavy Rain 67 19.4 67 19.4 100 100 W 15 24 29.83 1010 3 5 0.27 6.86
4:53 am 04:53 Cloudy with Rain 67 19.4 67 19.4 100 100 W 13 20 29.83 1010 4 6 0.33 8.38
5:00 am 05:00 Cloudy with Light Rain 68 20 67 19.4 96 96 WNW 15 24 29.83 1010 6 10 0.00 0.03
5:19 am 05:19 Cloudy with Heavy Rain 67 19.4 67 19.4 100 100 NW 8 13 29.83 1010 3 5 0.07 1.78
5:26 am 05:26 Cloudy with Heavy Rain 67 19.4 67 19.4 100 100 NW 7 11 29.85 1011 3 5 0.11 2.79
5:34 am 05:34 Cloudy with Heavy Rain 66 18.9 66 18.9 100 100 WNW 9 15 29.85 1011 3 4 0.17 4.32
5:37 am 05:37 Cloudy with Rain 66 18.9 65 18.3 96 96 NW 7 11 29.85 1011 3 5 0.18 4.57
5:53 am 05:53 Cloudy with Light Rain 66 18.9 65 18.3 96 96 NNW 5 7 29.86 1011 3 5 0.21 5.33
6:16 am 06:16 Cloudy with Light Rain 66 18.9 66 18.9 100 100 NE 5 7 29.88 1012 3 5 0.01 0.25
6:53 am 06:53 Cloudy with Mist and Fog 66 18.9 65 18.3 96 96 E 10 17 29.87 1011 5 8 0.02 0.51
7:00 am 07:00 Cloudy 66 18.9 65 18.3 96 96 E 12 19 29.88 1012 10 16 0.00 0.00
7:53 am 07:53 Cloudy 68 20 64 17.8 87 87 E 7 11 29.88 1012 10 16 0.02 0.51
8:53 am 08:53 Cloudy 71 21.7 65 18.3 81 81 ESE 7 11 29.88 1012 10 16 0.00 0.00
9:53 am 09:53 Partly Cloudy 75 23.9 63 17.2 66 66 SSW 7 11 29.89 1012 10 16 0.00 0.00
10:53 am 10:53 Mostly Sunny 76 24.4 63 17.2 64 64 S 9 15 29.89 1012 10 16 0.00 0.00
11:53 am 11:53 Mostly Cloudy 77 25 64 17.8 64 64 S 8 13 29.87 1012 10 16 0.00 0.00
12:53 pm 12:53 Mostly Cloudy 77 25 63 17.2 62 62 S 10 17 29.84 1011 10 16 0.00 0.00
1:53 pm 13:53 Mostly Cloudy 77 25 63 17.2 62 62 SW 10 17 29.82 1010 10 16 0.00 0.00
2:53 pm 14:53 Partly Cloudy 78 25.6 64 17.8 62 62 S 12 19 29.80 1009 10 16 0.00 0.00
3:53 pm 15:53 Sunny 78 25.6 64 17.8 62 62 S 13 20 29.79 1009 10 16 0.00 0.00
4:53 pm 16:53 Partly Cloudy 77 25 64 17.8 64 64 S 14 22 29.80 1009 10 16 0.00 0.00
5:53 pm 17:53 Partly Cloudy 76 24.4 63 17.2 64 64 S 10 17 29.82 1010 10 16 0.00 0.00
6:53 pm 18:53 Mostly Clear 75 23.9 63 17.2 66 66 S 14 22 29.83 1010 10 16 0.00 0.00
7:53 pm 19:53 Clear 75 23.9 64 17.8 69 69 S 13 20 29.85 1011 10 16 0.00 0.00
8:53 pm 20:53 Clear 74 23.3 64 17.8 71 71 S 14 22 29.87 1011 10 16 0.00 0.00
9:53 pm 21:53 Clear 71 21.7 61 16.1 71 71 SSE 14 22 29.87 1012 10 16 0.00 0.00
10:53 pm 22:53 Clear 70 21.1 62 16.7 76 76 SSE 10 17 29.86 1011 10 16 0.00 0.00
11:53 pm 23:53 Clear 74 23.3 62 16.7 67 67 SSW 17 28 29.85 1011 10 16 0.00 0.00

Powered by Vaisala Xweather